Location: Lane
(33.5226°N, 79.8788°W)
Time: 13:46:38
(UTC+00:00)

Tiros 1 despin weight - Pass Details

Date: 10 October 2022
Orbit: 590 x 637 km, 48.2° (Epoch: 25 November)

Event Time Altitude Azimuth Distance (km) Brightness Sun altitude
Rises 23:30:31 0° 314° (NW) 2,865 ? -8.8°
Reaches altitude 10° 23:33:00 10° 324° (NW) 1,968 ? -9.3°
Maximum altitude 23:37:06 33° 29° (NNE) 1,047 ? -10.2°
Enters shadow 23:40:19 15° 87° (E) 1,682 ? -10.9°
Drops below altitude 10° 23:41:14 10° 94° (E) 1,991 - -11.1°
Sets 23:43:45 0° 104° (ESE) 2,903 - -11.6°
